Location: Brno
(49.2000°N, 16.6330°E)
Time: 05:16:07
(UTC+02:00)

Cosmos 1603 - Visible Passes

Search period start: 23 June 2017 00:00
Search period end: 03 July 2017 00:00
Orbit: 830 x 860 km, 71.0° (Epoch: 22 June)

Date Brightness Start Highest point End Pass type
(mag) Time Alt. Az. Time Alt. Az. Time Alt. Az.
23 Jun 4.5 23:05:43 10° NW 23:11:03 43° WSW 23:15:15 16° S visible
24 Jun 4.5 22:51:47 10° NW 22:57:09 44° WSW 23:01:44 14° S visible
25 Jun 4.5 22:37:51 10° NW 22:43:15 45° WSW 22:48:15 11° S visible
26 Jun 4.5 22:23:56 10° NW 22:29:20 46° WSW 22:34:40 10° S visible
27 Jun 4.4 22:10:01 10° NW 22:15:26 48° WSW 22:20:47 10° S visible
28 Jun 4.4 21:56:04 10° NW 22:01:32 49° WSW 22:06:54 10° S visible
29 Jun 4.4 21:42:09 10° NW 21:47:37 51° WSW 21:53:01 10° S visible
